Grand Union Canal Half Marathon 2013
Skip Navigation Links
Results
Team Results
Course Map
Race Series
Event Stats
10 November 2013
HyperLink
Page 1 of 18 (881 items)
[1]234567...15161718
Pos
Bib No
Fav
Share
Print
Name
Time
Chip Time
Category
Cat Pos
Gender
Gen Pos
Club
Pace
137Sam Blanshard1:18:59.6FinishedTop 31Male1 10.0 m/hr
2253Marc Smerdon1:19:13.4FinishedTop 32Male2  9.9 m/hr
3280Roger Vilardell1:20:44.3FinishedTop 33Male3  9.7 m/hr
460Miceal Canavan1:20:48.5FinishedSen1Male4  9.7 m/hr
593Mark Dinsdale1:22:51.1FinishedSen2Male5  9.5 m/hr
625Andy Barnes1:24:10.8FinishedSen3Male6  9.3 m/hr
7277Jurg Van Der Walt1:24:49.7FinishedSen4Male7  9.3 m/hr
81295Chris Watterson1:25:20.3FinishedSen5Male8City Runners 9.2 m/hr
9170Andrew Farrell1:25:35.4FinishedV401Male9  9.2 m/hr
10284Stuart Webber1:25:39.2FinishedSen6Male10  9.2 m/hr
11202James Neil1:25:41.3FinishedSen7Male11  9.2 m/hr
12389Gareth Noot1:25:41.7FinishedSen8Male12  9.2 m/hr
13291Andrew Wiseall1:25:43.5FinishedSen9Male13Chiltern Harriers AC 9.2 m/hr
14172Ken Lowies1:25:53.6FinishedV402Male14Headington Road Runners 9.2 m/hr
15190Katherine Morgan1:25:55.3FinishedTop 31Female1Clapham Chasers 9.1 m/hr
16288Pete Williams1:26:02.3FinishedV403Male15  9.1 m/hr
1731James Bennett1:27:08.7FinishedSen10Male16  9.0 m/hr
1834Ilias Billas1:27:45.8FinishedSen11Male17  9.0 m/hr
191250Jon Tilley1:28:10.3FinishedSen12Male18Mens Running 8.9 m/hr
20251Nick Sirs1:28:34.4FinishedV501Male19Exeter Harriers 8.9 m/hr
21259James Soames1:29:01.8FinishedV404Male20  8.8 m/hr
22206Daniel Nichols1:29:06.5FinishedSen13Male21  8.8 m/hr
23257Steven Smith1:29:17.5FinishedSen14Male22  8.8 m/hr
24160Steven Layton1:29:23.1FinishedSen15Male23Run Dem Crew 8.8 m/hr
25121Dawn Godwin1:29:24.5FinishedTop 32Female2  8.8 m/hr
26268William Tandy1:29:40.6FinishedSen16Male24  8.8 m/hr
2729Stuart Beeston1:30:12.0FinishedV405Male25Victoria Park Harriers & Tower Hamlets Athletics Club 8.7 m/hr
28600Musa Adamu1:30:15.1FinishedSen17Male26  8.7 m/hr
29263John St Leger1:30:34.9FinishedSen18Male27  8.7 m/hr
30198Masatoshi Nagano1:30:41.9FinishedSen19Male28  8.7 m/hr
31193Robert Moynihan1:31:10.0FinishedSen20Male29  8.6 m/hr
32297Alistair Young1:31:17.5FinishedV406Male30London City Runners 8.6 m/hr
3332Paul Bettinson1:31:37.5FinishedSen21Male31  8.6 m/hr
3417Antonio Arroyo1:31:45.7FinishedSen22Male32  8.6 m/hr
3563Sean Casey1:32:03.0FinishedSen23Male33London Heathside AC 8.5 m/hr
36191David Moritz1:32:08.4FinishedSen24Male34Harpenden Arrows 8.5 m/hr
37275Mat Unwin1:32:30.7FinishedSen25Male35  8.5 m/hr
38143Hipolito Indias1:32:31.1FinishedV407Male36  8.5 m/hr
39126Emilio Grisolia1:32:31.5FinishedSen26Male37  8.5 m/hr
40111Keith Foley1:32:43.3FinishedV408Male38  8.5 m/hr
41153Luke Kenison1:32:47.2FinishedSen27Male39  8.5 m/hr
4276Richard Cowton1:32:56.9FinishedSen28Male40  8.5 m/hr
43136Ben Huf1:33:04.9FinishedSen29Male41  8.4 m/hr
44178James Marshall1:33:19.1FinishedV409Male42  8.4 m/hr
4551Kenneth Brown1:33:29.7FinishedV4010Male43  8.4 m/hr
46184Martin Mckee1:33:45.4FinishedV502Male44  8.4 m/hr
4745Lyndon Bradshaw1:33:45.5FinishedSen30Male45  8.4 m/hr
4824Owen Barder1:33:46.1FinishedV4011Male46Serpentine Running Club 8.4 m/hr
49196Steven Mycock1:33:54.6FinishedSen31Male47  8.4 m/hr
501296Gonzalo Fernandes Rodriguez1:34:28.8FinishedSen32Male48  8.3 m/hr
Page 1 of 18 (881 items)
[1]234567...15161718

HyperLink Copyright (c) G Vincent, 2017